3 Jan
2014
3 Jan
'14
2:43 a.m.
The following is the "best current" set of KEPs for M-CUBED2.
JSpOC-710 1 90710U 13072J 13348.62284903 +.00013465 +00000-0 +13156-2 0 00148 2 90710 120.4918 256.4723 0298653 349.1771 082.9876 14.64852722001202
For more details see Amsat News Service Bulletin ANS-363 at http://ww2.amsat.org/?page_id=443 in the "Satellite Shorts From All Over" section.